Time,TemperatureF,DewpointF,PressureIn,WindDirection,WindDirectionDegrees,WindSpeedMPH,WindSpeedGustMPH,Humidity,HourlyPrecipIn,Conditions,Clouds,dailyrainin,SoftwareType,DateUTC
2013-09-26 00:24:00,57.0,48.0,29.98,ESE,112,0.0,0.0,71,0.00,,,0.00,,2013-09-26 04:24:00,
2013-09-26 00:54:00,57.0,48.0,29.98,ESE,112,0.0,0.0,71,0.00,,,0.00,,2013-09-26 04:54:00,
2013-09-26 01:23:00,56.0,47.0,29.99,ESE,112,0.0,0.0,72,0.00,,,0.00,,2013-09-26 05:23:00,
2013-09-26 01:52:00,55.0,47.0,30.00,ESE,112,0.0,0.0,73,0.00,,,0.00,,2013-09-26 05:52:00,
2013-09-26 02:22:00,54.0,46.0,30.00,ESE,112,0.0,0.0,74,0.00,,,0.00,,2013-09-26 06:22:00,
2013-09-26 02:53:00,53.0,46.0,30.00,ESE,112,0.0,0.0,76,0.00,,,0.00,,2013-09-26 06:53:00,
2013-09-26 03:22:00,53.0,46.0,30.00,ESE,112,0.0,0.0,76,0.00,,,0.00,,2013-09-26 07:22:00,
2013-09-26 03:53:00,52.0,45.0,30.00,ESE,112,0.0,0.0,77,0.00,,,0.00,,2013-09-26 07:53:00,
2013-09-26 04:22:00,52.0,45.0,30.00,ESE,112,0.0,0.0,77,0.00,,,0.00,,2013-09-26 08:22:00,
2013-09-26 04:52:00,51.0,44.0,30.01,ESE,112,0.0,0.0,78,0.00,,,0.00,,2013-09-26 08:52:00,
2013-09-26 05:22:00,51.0,45.0,30.02,ESE,112,0.0,0.0,79,0.00,,,0.00,,2013-09-26 09:22:00,
2013-09-26 05:54:00,51.0,45.0,30.03,ESE,112,0.0,0.0,79,0.00,,,0.00,,2013-09-26 09:54:00,
2013-09-26 06:23:00,50.0,44.0,30.03,ESE,112,0.0,0.0,80,0.00,,,0.00,,2013-09-26 10:23:00,
2013-09-26 06:53:00,50.0,44.0,30.05,ESE,112,0.0,0.0,80,0.00,,,0.00,,2013-09-26 10:53:00,
2013-09-26 07:22:00,50.0,44.0,30.05,ESE,112,0.0,0.0,81,0.00,,,0.00,,2013-09-26 11:22:00,
2013-09-26 07:52:00,50.0,44.0,30.06,ESE,112,0.0,0.0,81,0.00,,,0.00,,2013-09-26 11:52:00,
2013-09-26 08:22:00,50.0,44.0,30.07,ESE,112,0.0,0.0,81,0.00,,,0.00,,2013-09-26 12:22:00,
2013-09-26 08:52:00,50.0,45.0,30.07,ESE,112,0.0,0.0,82,0.00,,,0.00,,2013-09-26 12:52:00,
2013-09-26 09:22:00,51.0,46.0,30.08,ESE,112,0.0,0.0,82,0.00,,,0.00,,2013-09-26 13:22:00,
2013-09-26 09:52:00,53.0,48.0,30.09,ESE,112,0.0,0.0,84,0.00,,,0.00,,2013-09-26 13:52:00,
2013-09-26 10:22:00,55.0,51.0,30.10,ESE,112,0.0,0.0,85,0.00,,,0.00,,2013-09-26 14:22:00,
2013-09-26 10:52:00,58.0,53.0,30.11,ESE,112,0.0,0.0,84,0.00,,,0.00,,2013-09-26 14:52:00,
2013-09-26 11:22:00,60.0,55.0,30.10,ESE,112,0.0,0.0,84,0.00,,,0.00,,2013-09-26 15:22:00,
2013-09-26 11:54:00,60.0,54.0,30.10,ESE,112,0.0,0.0,82,0.00,,,0.00,,2013-09-26 15:54:00,
2013-09-26 12:24:00,61.0,54.0,30.10,ESE,112,0.0,0.0,79,0.00,,,0.00,,2013-09-26 16:24:00,
2013-09-26 14:22:00,66.0,52.0,30.07,South,180,0.0,0.0,60,0.00,,,0.00,,2013-09-26 18:22:00,
2013-09-26 14:52:00,67.0,52.0,30.07,SW,225,0.0,0.0,58,0.00,,,0.00,,2013-09-26 18:52:00,
2013-09-26 15:52:00,70.0,54.0,30.07,SE,135,0.0,0.0,56,0.00,,,0.00,,2013-09-26 19:52:00,
2013-09-26 16:22:00,72.0,54.0,30.07,SE,135,0.0,0.0,54,0.00,,,0.00,,2013-09-26 20:22:00,
2013-09-26 16:52:00,74.0,56.0,30.06,SE,135,0.0,0.0,53,0.00,,,0.00,,2013-09-26 20:52:00,
2013-09-26 17:23:00,75.0,56.0,30.06,SE,135,0.0,0.0,52,0.00,,,0.00,,2013-09-26 21:23:00,
2013-09-26 17:54:00,75.0,57.0,30.06,SE,135,0.0,0.0,53,0.00,,,0.00,,2013-09-26 21:54:00,
2013-09-26 18:24:00,75.0,57.0,30.06,ESE,112,0.0,0.0,53,0.00,,,0.00,,2013-09-26 22:24:00,
2013-09-26 18:54:00,74.0,56.0,30.07,ESE,112,0.0,0.0,54,0.00,,,0.00,,2013-09-26 22:54:00,
2013-09-26 19:23:00,72.0,55.0,30.07,SSE,157,0.0,0.0,56,0.00,,,0.00,,2013-09-26 23:23:00,
2013-09-26 19:53:00,71.0,55.0,30.08,SSE,157,0.0,0.0,58,0.00,,,0.00,,2013-09-26 23:53:00,
2013-09-26 20:22:00,68.0,54.0,30.08,SSE,157,0.0,0.0,61,0.00,,,0.00,,2013-09-27 00:22:00,
2013-09-26 20:52:00,66.0,53.0,30.08,SSE,157,0.0,0.0,62,0.00,,,0.00,,2013-09-27 00:52:00,
2013-09-26 21:23:00,64.0,51.0,30.09,SSE,157,0.0,0.0,63,0.00,,,0.00,,2013-09-27 01:23:00,
2013-09-26 21:52:00,64.0,51.0,30.10,North,-999,-999.0,-999.0,63,0.00,,,0.00,,2013-09-27 01:52:00,
2013-09-26 22:02:00,64.0,51.0,30.10,North,-999,-999.0,-999.0,63,0.00,,,0.00,,2013-09-27 02:02:00,
2013-09-26 22:12:00,64.0,51.0,30.10,North,-999,-999.0,-999.0,63,0.00,,,0.00,,2013-09-27 02:12:00,